Location: Newark
(35.2672°N, 80.7344°W)
Time: 01:07:12
(UTC+00:00)

Vanguard 1 - Pass Details

Date: 25 January 2020
Orbit: 650 x 3833 km, 34.2° (Epoch: 20 February)

Event Time Altitude Azimuth Distance (km) Brightness Sun altitude
Rises 02:10:36 0° 278° (W) 3,237 13.6 -42.3°
Reaches altitude 10° 02:12:39 10° 273° (W) 2,476 12.7 -42.7°
Enters shadow 02:14:20 22° 266° (W) 1,916 12.0 -43.1°
